Location: Boiro
(42.6475°N, 8.8834°W)
Time: 01:49:17
(UTC+01:00)

Explorer 7 - Pass Details

Date: 30 November 2021
Orbit: 483 x 674 km, 50.3° (Epoch: 23 January)

Event Time Altitude Azimuth Distance (km) Brightness Sun altitude
Rises 07:35:15 0° 206° (SSW) 2,818 10.4 -12.6°
Reaches altitude 10° 07:37:51 10° 194° (SSW) 1,883 9.6 -12.1°
Maximum altitude 07:41:26 26° 137° (SE) 1,109 9.1 -11.5°
Drops below altitude 10° 07:44:51 10° 80° (E) 1,793 10.5 -10.9°
Sets 07:47:15 0° 67° (ENE) 2,654 11.1 -10.5°
